Flag Weather past 2 weeks in Unna, North Rhine-Westphalia, Germany

Now
61 °F

Clear.


Feels Like: 61 °F
Forecast: 51 / 67 °F
Wind: 9 mph from South

Location: Dortmund / Wickede

Current Time: Oct 31, 2014 at 5:44:46 PM

Latest Report: Oct 31, 2014 at 5:20 PM


Visibility: 10 mi

Pressure: 30.18 "Hg

Humidity: 72%

Dew point: 52 °F

Location of UnnaLocation

Historic Weather in Unna — Graph

°F

Unna temperature yesterday

Maximum temperature yesterday: 59 °F (at 2:50 PM)
Minimum temperature yesterday: 50 °F (at 5:20 AM)
Average temperature yesterday: 55 °F

Past Weeks' High & Low Weather Summary

 TemperatureHumidityPressure
High73 °F (Oct 19, 2:20 PM)94% (Oct 25, 8:20 PM)30.30 "Hg (Oct 25, 8:20 PM)
Low39 °F (Oct 28, 10:20 PM)53% (Oct 19, 2:20 PM)29.47 "Hg (Oct 21, 4:20 PM)
Average54 °F77%30.06 "Hg
* Reported Oct 16 5:20 PM — Oct 31 4:20 PM, Unna, Weather by CustomWeather, © 2014

Note: Actual official high and low records may vary slightly from our data, if they occured in-between our weather recording intervals... More about our weather records

Advertising

Unna weather history for previous 24 hours

 ConditionsComfort  
Time TempWeatherWind HumidityBarometerVisibility
4:20 PM
Oct 31
63 °FSunny.10 mph68%30.18 "Hg10 mi
3:50 PM63 °FSunny.10 mph68%30.18 "Hg10 mi
3:20 PM63 °FSunny.9 mph68%30.18 "Hg10 mi
2:50 PM64 °FSunny.12 mph64%30.18 "Hg10 mi
2:20 PM64 °FSunny.12 mph64%30.18 "Hg10 mi
1:50 PM64 °FSunny.9 mph64%30.18 "Hg10 mi
1:20 PM64 °FSunny.12 mph64%30.18 "Hg10 mi
12:50 PM64 °FSunny.12 mph64%30.21 "Hg10 mi
12:20 PM64 °FSunny.12 mph64%30.21 "Hg10 mi
11:50 AM63 °FSunny.14 mph68%30.21 "Hg10 mi
11:20 AM63 °FPassing clouds.13 mph68%30.21 "HgN/A
10:50 AM61 °FSunny.12 mph68%30.21 "Hg10 mi
10:20 AM59 °FSunny.10 mph72%30.21 "Hg10 mi
9:50 AM59 °FSunny.13 mph72%30.21 "Hg10 mi
9:20 AM57 °FSunny.12 mph77%30.21 "Hg10 mi
8:50 AM57 °FSunny.14 mph77%30.21 "Hg10 mi
8:20 AM57 °FSunny.13 mph72%30.21 "Hg10 mi
7:50 AM57 °FSunny.12 mph77%30.21 "Hg10 mi
7:20 AM57 °FSunny.12 mph72%30.21 "Hg10 mi
6:50 AM55 °FClear.10 mph77%30.18 "Hg10 mi
6:20 AM55 °FClear.13 mph77%30.18 "Hg10 mi
5:50 AM55 °FClear.16 mph77%30.18 "Hg10 mi
5:20 AM55 °FClear.14 mph77%30.18 "Hg10 mi
10:50 PM
Oct 30
57 °FClear.10 mph77%30.21 "Hg10 mi
10:20 PM55 °FClear.10 mph82%30.21 "Hg10 mi
9:50 PM55 °FClear.10 mph82%30.21 "Hg10 mi
9:20 PM57 °FClear.8 mph82%30.21 "Hg10 mi
8:50 PM57 °FClear.10 mph82%30.21 "Hg10 mi
8:20 PM57 °FClear.9 mph82%30.21 "Hg10 mi
7:50 PM57 °FClear.10 mph82%30.21 "Hg10 mi
7:20 PM57 °FClear.8 mph82%30.21 "Hg10 mi
6:50 PM57 °FClear.8 mph82%30.21 "Hg10 mi
6:20 PM57 °FClear.6 mph82%30.21 "Hg10 mi
5:50 PM57 °FClear.2 mph82%30.21 "Hg10 mi
5:20 PM57 °FClear.3 mph82%30.21 "Hg10 mi
Weather by CustomWeather, © 2014

See weather overviewHow to use our weather pages